Port Huron, MI

2:45 PM EST on November 21, 2017 (GMT -0500)
Saint Clair County International

Weather History for KPHN - August, 2013

Change the Weather History Date:

Saturday, August 10, 2013

  Actual Average (KMTC) Record (KMTC)
Temperature  
Mean Temperature 61 °F -  
Max Temperature 71 °F 77 °F 94 °F (1949)
Min Temperature 51 °F 61 °F 49 °F (1964)
Degree Days  
Heating Degree Days 4    
Growing Degree Days 11 (Base 50)    
Moisture  
Dew Point 56 °F    
Average Humidity 81    
Maximum Humidity 100    
Minimum Humidity 60    
Precipitation  
Precipitation 0.00 in - - ()
Sea Level Pressure  
Sea Level Pressure 30.11 in    
Wind  
Wind Speed 4 mph (NNE)    
Max Wind Speed 10 mph    
Max Gust Speed -    
Visibility 9 miles    
Events      
Averages and records for this station are not official NWS values.
T = Trace of Precipitation, MM = Missing Value Source: NWS Daily Summary

Daily Weather History Graph

Daily Weather History Graph

Search for Another Location

Airport or City:

Trip Planner

Search our weather history database for the weather conditions in past years. The results will help you decide how hot, cold, wet, or windy it might be!

Date:

Astronomy

Aug. 10, 2013 Rise Set
Actual Time 6:31 AM EDT 8:39 PM EDT
Civil Twilight 5:59 AM EDT 9:10 PM EDT
Nautical Twilight 5:21 AM EDT 9:48 PM EDT
Astronomical Twilight 4:39 AM EDT 10:30 PM EDT
Moon 10:23 AM EDT (8/10) 10:11 PM EDT (8/10)
Length of Visible Light 15h 10m
Length of Day
14h 08m
Waxing Crescent, 14% of the Moon is Illuminated
Aug 10
Waxing Crescent
Aug 14
First Quarter
Aug 20
Full
Aug 28
Last Quarter
Sep 5
New

Hourly Weather History & Observations

Time (EDT) Temp. Dew Point Humidity Pressure Visibility Wind Dir Wind Speed Gust Speed Precip Events Conditions
12:16 AM 64.4 °F 62.6 °F 94% 30.01 in 10.0 mi North 8.1 mph - N/A   Mostly Cloudy
12:36 AM 66.2 °F 62.6 °F 88% 30.02 in 10.0 mi North 4.6 mph - N/A   Mostly Cloudy
12:56 AM 64.4 °F 62.6 °F 94% 30.02 in 10.0 mi NNE 3.5 mph - N/A   Scattered Clouds
1:16 AM 64.4 °F 60.8 °F 88% 30.03 in 10.0 mi NNE 3.5 mph - N/A   Clear
1:36 AM 64.4 °F 59.0 °F 83% 30.04 in 10.0 mi Calm Calm - N/A   Clear
1:56 AM 62.6 °F 59.0 °F 88% 30.04 in 10.0 mi Calm Calm - N/A   Clear
2:16 AM 60.8 °F 59.0 °F 94% 30.05 in 10.0 mi Calm Calm - N/A   Clear
2:36 AM 60.8 °F 59.0 °F 94% 30.05 in 10.0 mi Calm Calm - N/A   Scattered Clouds
2:56 AM 60.8 °F 59.0 °F 94% 30.06 in 10.0 mi Calm Calm - N/A   Clear
3:16 AM 57.2 °F 57.2 °F 100% 30.06 in 10.0 mi Calm Calm - N/A   Clear
3:36 AM 57.2 °F 57.2 °F 100% 30.07 in 2.5 mi Calm Calm - N/A   Clear
3:56 AM 55.4 °F 55.4 °F 100% 30.07 in 10.0 mi WNW 3.5 mph - N/A   Clear
4:16 AM 55.4 °F 55.4 °F 100% 30.08 in 5.0 mi Calm Calm - N/A   Clear
4:36 AM 55.4 °F 55.4 °F 100% 30.08 in 3.0 mi Calm Calm - N/A   Clear
4:56 AM 53.6 °F 53.6 °F 100% 30.09 in 1.0 mi Calm Calm - N/A   Mist
5:16 AM 55.4 °F 55.4 °F 100% 30.08 in 10.0 mi Calm Calm - N/A   Clear
5:36 AM 55.4 °F 55.4 °F 100% 30.08 in 3.0 mi NW 4.6 mph - N/A   Clear
5:56 AM 55.4 °F 55.4 °F 100% 30.09 in 10.0 mi NW 3.5 mph - N/A   Clear
6:16 AM 55.4 °F 55.4 °F 100% 30.09 in 10.0 mi Calm Calm - N/A   Clear
6:36 AM 55.4 °F 55.4 °F 100% 30.10 in 2.5 mi Calm Calm - N/A   Clear
6:56 AM 55.4 °F 55.4 °F 100% 30.11 in 10.0 mi NW 3.5 mph - N/A   Clear
7:16 AM 55.4 °F 55.4 °F 100% 30.11 in 10.0 mi NNW 3.5 mph - N/A   Clear
7:36 AM 57.2 °F 57.2 °F 100% 30.11 in 10.0 mi NNW 3.5 mph - N/A   Clear
7:56 AM 59.0 °F 59.0 °F 100% 30.11 in 10.0 mi North 4.6 mph - N/A   Clear
8:16 AM 60.8 °F 59.0 °F 94% 30.12 in 10.0 mi North 3.5 mph - N/A   Clear
8:36 AM 62.6 °F 59.0 °F 88% 30.12 in 10.0 mi North 4.6 mph - N/A   Clear
8:56 AM 64.4 °F 57.2 °F 77% 30.12 in 10.0 mi Calm Calm - N/A   Clear
9:16 AM 64.4 °F 55.4 °F 73% 30.13 in 10.0 mi North 6.9 mph - N/A   Clear
9:36 AM 64.4 °F 53.6 °F 68% 30.13 in 10.0 mi NNW 4.6 mph - N/A   Clear
9:56 AM 66.2 °F 55.4 °F 68% 30.13 in 10.0 mi NNE 3.5 mph - N/A   Clear
10:16 AM 66.2 °F 55.4 °F 68% 30.13 in 10.0 mi North 4.6 mph - N/A   Clear
10:36 AM 68.0 °F 55.4 °F 64% 30.14 in 10.0 mi North 4.6 mph - N/A   Clear
10:56 AM 68.0 °F 55.4 °F 64% 30.14 in 10.0 mi NNW 3.5 mph - N/A   Clear
11:16 AM 68.0 °F 55.4 °F 64% 30.14 in 10.0 mi North 3.5 mph - N/A   Clear
11:36 AM 68.0 °F 55.4 °F 64% 30.14 in 10.0 mi East 4.6 mph - N/A   Clear
11:56 AM 69.8 °F 55.4 °F 60% 30.15 in 10.0 mi Calm Calm - N/A   Clear
12:16 PM 69.8 °F 55.4 °F 60% 30.15 in 10.0 mi NNW 3.5 mph - N/A   Scattered Clouds
12:36 PM 69.8 °F 57.2 °F 64% 30.15 in 10.0 mi WNW 3.5 mph - N/A   Scattered Clouds
12:56 PM 71.6 °F 57.2 °F 60% 30.15 in 10.0 mi NNW 4.6 mph - N/A   Mostly Cloudy
1:16 PM 69.8 °F 57.2 °F 64% 30.15 in 10.0 mi NE 5.8 mph - N/A   Overcast
1:36 PM 69.8 °F 57.2 °F 64% 30.15 in 10.0 mi NE 6.9 mph - N/A   Overcast
1:56 PM 71.6 °F 57.2 °F 60% 30.14 in 10.0 mi ENE 3.5 mph - N/A   Mostly Cloudy
2:16 PM 69.8 °F 57.2 °F 64% 30.14 in 10.0 mi NNE 6.9 mph - N/A   Mostly Cloudy
2:36 PM 71.6 °F 59.0 °F 64% 30.14 in 10.0 mi ENE 5.8 mph - N/A   Overcast
2:56 PM 71.6 °F 59.0 °F 64% 30.14 in 10.0 mi NNE 5.8 mph - N/A   Mostly Cloudy
3:16 PM 69.8 °F 59.0 °F 68% 30.14 in 10.0 mi NNE 6.9 mph - N/A   Mostly Cloudy
3:36 PM 69.8 °F 59.0 °F 68% 30.14 in 10.0 mi NE 8.1 mph - N/A   Mostly Cloudy
3:56 PM 69.8 °F 59.0 °F 68% 30.14 in 10.0 mi NE 8.1 mph - N/A   Mostly Cloudy
4:16 PM 69.8 °F 59.0 °F 68% 30.13 in 10.0 mi North 6.9 mph - N/A   Scattered Clouds
4:36 PM 69.8 °F 59.0 °F 68% 30.13 in 10.0 mi NE 9.2 mph - N/A   Clear
4:56 PM 69.8 °F 57.2 °F 64% 30.13 in 10.0 mi NE 8.1 mph - N/A   Clear
5:16 PM 68.0 °F 57.2 °F 68% 30.13 in 10.0 mi NE 9.2 mph - N/A   Clear
5:36 PM 68.0 °F 57.2 °F 68% 30.13 in 10.0 mi NE 10.4 mph - N/A   Clear
5:56 PM 68.0 °F 57.2 °F 68% 30.14 in 10.0 mi ENE 10.4 mph - N/A   Clear
6:16 PM 68.0 °F 57.2 °F 68% 30.14 in 10.0 mi NE 8.1 mph - N/A   Clear
6:36 PM 66.2 °F 55.4 °F 68% 30.13 in 10.0 mi NNE 8.1 mph - N/A   Clear
6:56 PM 66.2 °F 55.4 °F 68% 30.13 in 10.0 mi NE 9.2 mph - N/A   Clear
7:16 PM 66.2 °F 53.6 °F 64% 30.13 in 10.0 mi NE 6.9 mph - N/A   Clear
7:36 PM 64.4 °F 53.6 °F 68% 30.13 in 10.0 mi NE 4.6 mph - N/A   Clear
7:56 PM 64.4 °F 53.6 °F 68% 30.12 in 10.0 mi NE 4.6 mph - N/A   Clear
8:16 PM 62.6 °F 53.6 °F 72% 30.12 in 10.0 mi NNE 3.5 mph - N/A   Clear
8:36 PM 60.8 °F 53.6 °F 77% 30.12 in 10.0 mi Calm Calm - N/A   Clear
8:56 PM 57.2 °F 53.6 °F 88% 30.12 in 10.0 mi Calm Calm - N/A   Clear
9:16 PM 55.4 °F 53.6 °F 94% 30.13 in 10.0 mi Calm Calm - N/A   Clear
9:36 PM 53.6 °F 53.6 °F 100% 30.13 in 10.0 mi Calm Calm - N/A   Clear
9:56 PM 53.6 °F 51.8 °F 94% 30.14 in 10.0 mi Calm Calm - N/A   Clear
10:16 PM 53.6 °F 51.8 °F 94% 30.14 in 10.0 mi Calm Calm - N/A   Clear
10:36 PM 51.8 °F 51.8 °F 100% 30.15 in 10.0 mi Calm Calm - N/A   Clear
10:56 PM 51.8 °F 51.8 °F 100% 30.14 in 10.0 mi Calm Calm - N/A   Clear
11:16 PM 51.8 °F 51.8 °F 100% 30.14 in 10.0 mi Calm Calm - N/A   Mostly Cloudy
11:36 PM 53.6 °F 53.6 °F 100% 30.14 in 10.0 mi Calm Calm - N/A   Overcast
11:56 PM 53.6 °F 53.6 °F 100% 30.14 in 10.0 mi Calm Calm - N/A   Overcast